Location: Unspecified
(0.0000°N, 0.0000°E)
Time: 18:17:09
(UTC+00:00)

STARLINK 1043 - Pass Details

Date: 20 January 2020
Orbit: 548 x 551 km, 53.0° (Epoch: 17 January)

Event Time Altitude Azimuth Distance (km) Brightness Sun altitude
Rises 05:36:10 0° 215° (SW) 2,713 7.0 -8.1°
Reaches altitude 10° 05:38:24 10° 215° (SW) 1,818 6.1 -7.6°
Maximum altitude 05:42:32 85° 305° (NW) 552 3.6 -6.6°
Drops below altitude 10° 05:46:39 10° 33° (NNE) 1,809 6.4 -5.7°
Sets 05:48:52 0° 33° (NNE) 2,699 7.3 -5.1°
